When you browse on this site, cookies collect data to enhance your experience and personalize the content and advertising you see.
Visit our Privacy Policy to learn more. By continuing to use the site, you agree to this use of cookies and data.
  • în România
  • Lista ţărilor
  • Pe 7 zile
  • Temperatura apei
  • Meteo pe hartă
  • Widget-uri
  • user-avatar
    Intrare

    Meteo pe oră la Reykjavík

    Astăzi, 29 Mai, Vineri

    Timp Temperatura Precipitaţii Vânt Presiune Umiditate
    00:00 +9°C° 0 mm 8 m/s 756 mmHg 93%
    01:00 +9°C° 0 mm 8 m/s 755 mmHg 92%
    02:00 +9°C° 0 mm 8 m/s 754 mmHg 91%
    03:00 +8°C° 0.2 mm 9 m/s 753 mmHg 92%
    04:00 +8°C° 0.2 mm 9 m/s 752 mmHg 92%
    05:00 +8°C° 0 mm 10 m/s 752 mmHg 94%
    06:00 +8°C° 0.5 mm 10 m/s 752 mmHg 94%
    07:00 +8°C° 0.5 mm 11 m/s 752 mmHg 94%
    08:00 +9°C° 0.5 mm 11 m/s 752 mmHg 94%
    09:00 +9°C° 0.1 mm 12 m/s 752 mmHg 92%
    10:00 +9°C° 0.1 mm 12 m/s 752 mmHg 91%
    11:00 +9°C° 0.1 mm 12 m/s 752 mmHg 90%
    12:00 +9°C° 0.1 mm 12 m/s 752 mmHg 91%
    13:00 +9°C° 0.1 mm 12 m/s 752 mmHg 91%
    14:00 +8°C° 0.1 mm 12 m/s 752 mmHg 92%
    15:00 +8°C° 0.1 mm 11 m/s 751 mmHg 92%
    16:00 +8°C° 0.1 mm 10 m/s 751 mmHg 91%
    17:00 +8°C° 0.1 mm 10 m/s 751 mmHg 90%
    18:00 +8°C° 1.6 mm 10 m/s 751 mmHg 92%
    19:00 +8°C° 1.6 mm 9 m/s 751 mmHg 93%
    20:00 +8°C° 1.6 mm 9 m/s 751 mmHg 94%
    21:00 +8°C° 2.1 mm 9 m/s 751 mmHg 94%
    22:00 +8°C° 2.1 mm 9 m/s 752 mmHg 94%
    23:00 +8°C° 2.1 mm 10 m/s 752 mmHg 94%

    Mâine, 30 Mai, Sâmbătă

    Timp Temperatura Precipitaţii Vânt Presiune Umiditate
    00:00 +7°C° 0.3 mm 9 m/s 752 mmHg 94%
    01:00 +7°C° 0.3 mm 8 m/s 753 mmHg 94%
    02:00 +7°C° 0.3 mm 8 m/s 753 mmHg 94%
    03:00 +8°C° 0.1 mm 7 m/s 754 mmHg 91%
    04:00 +7°C° 0.1 mm 6 m/s 755 mmHg 88%
    05:00 +7°C° 0.1 mm 5 m/s 756 mmHg 85%
    06:00 +7°C° 0.1 mm 6 m/s 756 mmHg 79%
    07:00 +6°C° 0.1 mm 7 m/s 757 mmHg 74%
    08:00 +6°C° 0.1 mm 7 m/s 758 mmHg 68%
    09:00 +6°C° 0.1 mm 7 m/s 758 mmHg 69%
    10:00 +8°C° 0.1 mm 7 m/s 759 mmHg 69%
    11:00 +8°C° 0.1 mm 7 m/s 759 mmHg 70%
    12:00 +8°C° 0.1 mm 7 m/s 759 mmHg 68%
    13:00 +9°C° 0.1 mm 7 m/s 760 mmHg 65%
    14:00 +9°C° 0.1 mm 7 m/s 760 mmHg 63%
    15:00 +9°C° 0 mm 6 m/s 760 mmHg 63%
    16:00 +9°C° 0 mm 6 m/s 761 mmHg 63%
    17:00 +9°C° 0 mm 6 m/s 761 mmHg 63%
    18:00 +8°C° 0 mm 5 m/s 761 mmHg 65%
    19:00 +8°C° 0 mm 5 m/s 761 mmHg 66%
    20:00 +8°C° 0 mm 5 m/s 761 mmHg 68%
    21:00 +7°C° 0 mm 4 m/s 762 mmHg 73%
    22:00 +6°C° 0 mm 4 m/s 762 mmHg 78%
    23:00 +7°C° 0 mm 3 m/s 762 mmHg 82%

    Poimâine, 31 Mai, Duminică

    Timp Temperatura Precipitaţii Vânt Presiune Umiditate
    00:00 +7°C° 0.1 mm 3 m/s 762 mmHg 83%
    01:00 +7°C° 0.1 mm 3 m/s 762 mmHg 83%
    02:00 +7°C° 0.1 mm 2 m/s 761 mmHg 84%
    03:00 +7°C° 0.3 mm 3 m/s 761 mmHg 84%
    04:00 +5°C° 0.3 mm 3 m/s 762 mmHg 84%
    05:00 +5°C° 0.3 mm 3 m/s 762 mmHg 84%
    06:00 +7°C° 0.4 mm 3 m/s 762 mmHg 77%
    07:00 +7°C° 0.4 mm 4 m/s 762 mmHg 71%
    08:00 +7°C° 0.4 mm 4 m/s 762 mmHg 65%
    09:00 +8°C° 0.3 mm 5 m/s 762 mmHg 64%
    10:00 +8°C° 0.3 mm 6 m/s 763 mmHg 63%
    11:00 +8°C° 0.3 mm 6 m/s 763 mmHg 62%
    12:00 +8°C° 0.1 mm 6 m/s 763 mmHg 63%
    13:00 +8°C° 0.1 mm 6 m/s 763 mmHg 63%
    14:00 +8°C° 0.1 mm 5 m/s 763 mmHg 63%
    15:00 +8°C° 0.2 mm 5 m/s 763 mmHg 66%
    16:00 +8°C° 0.2 mm 5 m/s 763 mmHg 68%
    17:00 +7°C° 0.2 mm 5 m/s 763 mmHg 71%
    18:00 +7°C° 0.1 mm 5 m/s 764 mmHg 72%
    19:00 +7°C° 0.1 mm 5 m/s 764 mmHg 73%
    20:00 +6°C° 0.1 mm 5 m/s 764 mmHg 74%
    21:00 +6°C° 0.1 mm 5 m/s 764 mmHg 76%
    22:00 +6°C° 0.1 mm 4 m/s 764 mmHg 78%
    23:00 +6°C° 0.1 mm 4 m/s 764 mmHg 79%

    1 Iunie, Luni

    Timp Temperatura Precipitaţii Vânt Presiune Umiditate
    00:00 +6°C° 0.1 mm 4 m/s 764 mmHg 81%
    01:00 +6°C° 0.1 mm 4 m/s 764 mmHg 83%
    02:00 +5°C° 0.1 mm 4 m/s 764 mmHg 84%
    03:00 +6°C° 0.1 mm 4 m/s 764 mmHg 84%
    04:00 +7°C° 0.1 mm 3 m/s 764 mmHg 83%
    05:00 +7°C° 0.1 mm 3 m/s 764 mmHg 82%
    06:00 +8°C° 0.1 mm 3 m/s 764 mmHg 77%
    07:00 +9°C° 0.1 mm 3 m/s 765 mmHg 72%
    08:00 +9°C° 0.1 mm 3 m/s 765 mmHg 66%
    09:00 +10°C° 0 mm 4 m/s 765 mmHg 66%
    10:00 +10°C° 0 mm 4 m/s 765 mmHg 65%
    11:00 +10°C° 0 mm 4 m/s 765 mmHg 64%
    12:00 +10°C° 0 mm 4 m/s 765 mmHg 66%
    13:00 +10°C° 0 mm 4 m/s 765 mmHg 68%
    14:00 +11°C° 0 mm 3 m/s 765 mmHg 70%
    15:00 +10°C° 0.1 mm 3 m/s 766 mmHg 76%
    16:00 +10°C° 0.1 mm 3 m/s 766 mmHg 81%
    17:00 +9°C° 0.1 mm 2 m/s 766 mmHg 86%
    18:00 +9°C° 0.1 mm 2 m/s 766 mmHg 88%
    19:00 +9°C° 0.1 mm 3 m/s 766 mmHg 90%
    20:00 +9°C° 0.1 mm 3 m/s 767 mmHg 92%
    21:00 +9°C° 0.1 mm 3 m/s 767 mmHg 93%
    22:00 +9°C° 0.1 mm 3 m/s 767 mmHg 94%
    23:00 +9°C° 0.1 mm 3 m/s 767 mmHg 95%

    2 Iunie, Marţi

    Timp Temperatura Precipitaţii Vânt Presiune Umiditate
    00:00 +9°C° 0.1 mm 3 m/s 767 mmHg 95%
    01:00 +9°C° 0.1 mm 3 m/s 767 mmHg 96%
    02:00 +9°C° 0.1 mm 3 m/s 768 mmHg 96%
    03:00 +9°C° 0.1 mm 3 m/s 768 mmHg 96%
    04:00 +9°C° 0.1 mm 3 m/s 768 mmHg 95%
    05:00 +9°C° 0.1 mm 3 m/s 768 mmHg 95%
    06:00 +9°C° 0.1 mm 3 m/s 768 mmHg 93%
    07:00 +9°C° 0.1 mm 3 m/s 768 mmHg 91%
    08:00 +10°C° 0.1 mm 3 m/s 769 mmHg 89%
    09:00 +10°C° 0.1 mm 4 m/s 769 mmHg 86%
    10:00 +11°C° 0.1 mm 4 m/s 769 mmHg 84%
    11:00 +11°C° 0.1 mm 4 m/s 769 mmHg 82%
    12:00 +11°C° 0.1 mm 4 m/s 769 mmHg 81%
    13:00 +11°C° 0.1 mm 4 m/s 769 mmHg 81%
    14:00 +11°C° 0.1 mm 4 m/s 769 mmHg 80%
    15:00 +11°C° 0 mm 4 m/s 769 mmHg 78%
    16:00 +11°C° 0 mm 4 m/s 769 mmHg 75%
    17:00 +12°C° 0 mm 3 m/s 769 mmHg 72%
    18:00 +11°C° 0 mm 3 m/s 769 mmHg 75%
    19:00 +11°C° 0 mm 3 m/s 769 mmHg 77%
    20:00 +10°C° 0 mm 3 m/s 769 mmHg 80%
    21:00 +9°C° 0 mm 3 m/s 768 mmHg 84%
    22:00 +8°C° 0 mm 3 m/s 768 mmHg 88%
    23:00 +8°C° 0 mm 3 m/s 768 mmHg 93%

    3 Iunie, Miercuri

    Timp Temperatura Precipitaţii Vânt Presiune Umiditate
    00:00 +8°C° 0 mm 3 m/s 767 mmHg 93%
    01:00 +8°C° 0 mm 3 m/s 767 mmHg 92%
    02:00 +8°C° 0 mm 3 m/s 766 mmHg 92%
    03:00 +8°C° 0.1 mm 3 m/s 766 mmHg 93%
    04:00 +9°C° 0.1 mm 3 m/s 765 mmHg 95%
    05:00 +9°C° 0.1 mm 3 m/s 765 mmHg 96%
    06:00 +9°C° 0 mm 3 m/s 765 mmHg 95%
    07:00 +10°C° 0 mm 3 m/s 764 mmHg 94%
    08:00 +10°C° 0 mm 3 m/s 764 mmHg 94%
    09:00 +10°C° 0 mm 3 m/s 764 mmHg 92%
    10:00 +10°C° 0 mm 3 m/s 764 mmHg 90%
    11:00 +11°C° 0 mm 3 m/s 764 mmHg 88%
    12:00 +11°C° 0 mm 3 m/s 763 mmHg 86%
    13:00 +11°C° 0 mm 3 m/s 763 mmHg 84%
    14:00 +11°C° 0 mm 3 m/s 763 mmHg 82%
    15:00 +11°C° 0 mm 3 m/s 763 mmHg 81%
    16:00 +11°C° 0 mm 3 m/s 763 mmHg 80%
    17:00 +11°C° 0 mm 3 m/s 763 mmHg 79%
    18:00 +11°C° 0 mm 3 m/s 763 mmHg 82%
    19:00 +10°C° 0 mm 3 m/s 763 mmHg 84%
    20:00 +9°C° 0 mm 3 m/s 764 mmHg 87%
    21:00 +9°C° 0 mm 3 m/s 763 mmHg 89%
    22:00 +8°C° 0 mm 2 m/s 763 mmHg 91%
    23:00 +9°C° 0 mm 1 m/s 763 mmHg 93%
    Arată mai mult